Погода в Истье

Россия / Калужская область     55°07′44″N   36°50′49″E
темп.,
°C
ветер,
м/с
пор.,
м/с
влажн.,
%
обл.,
%
осадки,
мм/ч
давл.,
гПа
погр.,
м
18 сентября, сб
сб1800:00+2всв257852 0.0 102293
03:00+1всв2680100 0.0 1023115
06:00+1всв3883100 0.0 1023177
09:00+6в4962100 0.0 1023551
12:00+10в6846100 0.0 10221186
15:00+11в5740100 0.0 10211412
18:00+10в4851100 0.0 1021791
21:00+8в51262100 0.0 1022613
19 сентября, вс
вс1900:00+6в51363100 0.0 1021682
03:00+6в61266100 0.0 1020799
06:00+5в61372100 0.3 1020790
09:00+4в61589100 2.6 1020739
12:00+5в61590100 3.1 1020781
15:00+5в71588100 6.8 1019836
18:00+5в71589100 3.6 1018871
21:00+5всв71590100 6.8 1017848
20 сентября, пн
пн2000:00+5всв71593100 2.9 1016780
03:00+5всв71694100 5.6 1016865
06:00+4всв71494100 0.7 1016873
09:00+4всв71395100 1.4 1016875
12:00+4всв71495100 0.6 1016893
15:00+4всв71497100 0.8 1015858
18:00+4всв71496100 0.3 1015896
21:00+4всв71595100 2.8 1014805
21 сентября, вт
вт2100:00+5всв61395100 1.8 1013868
03:00+5всв61295100 2.6 1012861
06:00+5всв61296100 0.8 1011784
09:00+5всв51196100 1.6 1010728
12:00+6всв4997100 0.3 1010573
15:00+6св3796100 0.6 1010397
18:00+6ссв3798100 0.7 1010329
21:00+6с2598100 0.9 1011275
22 сентября, ср
ср2200:00+6с3598100 0.1 1011245
03:00+6с3698100 0.1 1010256
06:00+6с3798100 0.2 1010312
09:00+6с3798100 1.1 1010361
12:00+6с3797100 0.9 1010406
15:00+6с3594100 1.0 1010399
18:00+6ссз3596100 0.1 1011305
21:00+6с2497100 0.2 1011214